CAPE
5 3 1 2 3 2 2 2 3 4 8 6 1 1 0 0 0 0 0 0 0 1 0 0 0 0 0 0 0 0 0 0 0 0 0 0 0 0 0 0 0 0 0 0 6
3 3 3 1 1 1 1 0 5 2 2 9 2 3 0 0 0 0 0 0 0 0 0 0 0 0 0 0 1 0 0 0 0 0 0 0 0 0 0 0 0 0 0 0 0
2 1 1 1 1 0 0 1 9 5 1 3 2 1 0 0 0 0 0 0 0 0 0 0 0 0 0 0 0 4 0 0 0 0 0 0 0 0 0 0 0 0 0 0 0
1 0 0 0 0 0 0 4 7 7 2 3 0 0 0 0 0 0 0 0 0 0 0 0 0 0 0 0 0 6 0 0 0 0 0 0 0 0 0 0 0 0 0 0 0
0 0 0 0 0 0 0 4 3 3 3 0 0 0 0 0 0 0 0 0 0 0 0 0 0 0 0 0 0 11 5 2 2 12 8 8 4 0 0 0 0 0 0 0 0
0 0 0 0 0 0 0 0 0 0 0 0 0 0 0 0 0 0 0 0 0 0 0 0 0 0 0 0 0 0 0 0 0 0 0 0 0 0 0 0 0 0 0 0 0
0 0 0 0 0 0 0 0 0 0 0 0 0 0 0 0 0 0 0 0 0 0 0 0 0 0 0 0 0 0 3 0 0 0 0 0 0 0 0 0 0 0 0 0 0
0 0 0 0 0 0 0 0 0 0 0 0 0 0 0 0 0 0 0 0 0 0 0 0 0 0 16 19 14 4 0 0 0 0 0 0 0 1 0 0 0 0 0 0 0
0 0 0 0 0 0 0 0 0 0 0 0 0 0 0 0 0 0 0 0 0 0 0 0 0 4 0 1 1 0 0 0 0 0 0 2 2 5 1 0 0 0 0 0 0
0 0 0 0 0 0 0 0 0 0 0 0 0 0 0 0 0 0 0 0 0 0 0 0 0 0 0 0 0 0 0 0 0 0 0 0 1 2 3 1 2 0 0 0 0
0 0 0 0 0 0 0 0 0 0 0 0 0 0 0 0 0 0 0 0 0 0 0 0 0 0 0 0 0 0 0 0 0 0 0 0 0 1 1 0 0 1 1 1 1
0 0 0 0 0 0 0 0 0 0 0 0 0 0 0 0 0 0 0 0 0 0 0 0 0 0 0 0 0 0 0 0 0 0 0 0 0 0 0 1 1 1 0 1 1
0 0 0 0 0 0 0 0 0 0 0 0 0 0 0 0 0 0 0 0 0 0 0 0 0 0 0 0 0 0 0 0 0 0 0 0 0 0 0 0 0 0 0 0 0
0 0 0 0 0 0 0 0 0 0 0 0 0 0 0 0 0 0 0 0 0 0 0 0 0 0 0 0 0 0 0 0 0 0 0 0 0 0 0 0 0 0 0 1 1
0 0 0 0 0 0 0 0 0 0 0 0 0 0 0 0 0 0 0 0 0 0 0 0 0 0 0 0 0 0 0 0 0 0 0 0 0 0 0 0 0 0 0 0 0
0 0 0 0 0 0 0 0 0 0 0 0 0 0 0 0 0 0 0 0 0 0 0 0 0 0 0 0 0 0 0 0 0 0 0 0 0 0 0 0 0 0 0 0 0
0 0 0 0 0 0 0 0 0 0 0 0 0 0 0 0 0 0 0 0 0 0 0 0 0 0 0 0 0 0 0 0 0 0 0 0 0 0 0 0 0 0 0 0 0
0 0 0 0 0 0 0 0 0 0 0 0 0 0 0 0 0 0 0 0 0 0 0 0 0 0 0 0 0 0 0 2 5 2 0 0 0 0 0 0 0 0 0 0 0
0 0 0 0 0 0 0 0 0 0 0 0 0 0 0 0 0 0 0 0 0 0 0 0 0 0 0 0 0 0 0 0 0 0 0 0 0 1 0 0 0 0 0 0 0
0 0 0 0 0 0 0 0 0 0 0 0 0 0 0 0 0 0 0 0 0 0 0 0 0 0 0 0 0 0 0 0 0 0 0 0 0 0 0 0 0 0 0 0 0
0 0 0 0 0 0 0 0 0 0 0 0 0 0 0 0 0 0 0 0 0 0 0 0 0 0 0 0 0 0 0 0 0 0 0 0 0 0 0 0 0 0 0 0 0
0 0 0 0 0 0 0 0 0 0 0 0 0 0 0 0 0 0 0 0 0 0 0 0 0 0 0 0 0 0 0 0 0 0 0 0 0 0 0 0 0 0 0 0 0
0 0 0 0 0 0 0 0 0 0 0 0 0 0 0 0 0 0 0 0 0 0 0 0 0 0 0 0 0 0 0 0 0 0 0 0 0 0 0 0 0 0 0 0 0
0 0 0 0 0 0 0 0 0 0 0 0 0 0 0 0 0 0 0 0 0 0 0 0 0 0 0 0 0 0 0 0 0 0 0 0 0 0 0 0 0 0 0 0 0
0 0 0 0 0 0 0 0 0 0 0 0 0 0 0 0 0 0 0 0 0 0 0 0 0 0 0 0 0 0 0 0 0 0 0 0 0 0 0 0 0 0 0 0 0
0 0 0 0 0 0 0 0 0 0 0 0 0 0 0 0 0 0 0 0 0 0 0 0 0 0 0 0 0 0 0 0 0 0 0 0 0 0 0 0 0 0 0 0 0
0 0 0 0 0 0 0 0 0 0 0 0 0 0 0 0 0 0 0 0 0 0 0 0 0 0 0 0 0 0 0 0 0 0 0 0 0 0 0 0 0 0 0 0 0
CIN
-0 -0 -0 -0 -0 -0 -0 -0 -0 -0 -0 -0 -0 -0 -0 -0 -0 -0 -0 -0 -0 -0 -0 -0 -0 -0 -0 -0 -0 -0 -0 -0 -0 -0 -0 -0 -0 -0 -0 -0 -0 -0 -0 -0 -237
-0 -0 -0 -0 -0 -0 -0 -0 -0 -0 -0 -2 -0 -0 -0 -0 -0 -0 -0 -0 -0 -0 -0 -0 -0 -0 -0 -0 -2 -0 -0 -0 -0 -0 -0 -0 -0 -0 -0 -0 -0 -0 -0 -0 -0
-0 -0 -0 -0 -0 -0 -0 -0 -0 -0 -0 -1 -0 -0 -0 -0 -0 -0 -0 -0 -0 -0 -0 -0 -0 -0 -0 -0 -0 -2 -0 -0 -0 -0 -0 -0 -0 -0 -0 -0 -0 -0 -0 -0 -0
-0 -0 -0 -0 -0 -0 -0 -0 -0 -0 -0 -0 -0 -0 -0 -0 -0 -0 -0 -0 -0 -0 -0 -0 -0 -0 -0 -0 -0 -2 -0 -1 -0 -0 -0 -0 -0 -0 -0 -0 -0 -0 -0 -0 -0
-0 -0 -0 -0 -0 -0 -0 -0 -0 -0 -0 -0 -0 -0 -0 -0 -0 -0 -0 -0 -0 -0 -0 -0 -0 -0 -0 -0 -0 -8 -6 -2 -14 -10 -14 -18 -18 -0 -0 -0 -0 -0 -0 -0 -0
-0 -0 -0 -0 -0 -0 -0 -0 -0 -0 -0 -0 -0 -0 -0 -0 -0 -0 -0 -0 -0 -0 -0 -0 -0 -0 -0 -0 -0 -5 -0 -0 -0 -0 -0 -0 -0 -0 -0 -0 -0 -0 -0 -0 -0
-0 -0 -0 -0 -0 -0 -0 -0 -0 -0 -0 -0 -0 -0 -0 -0 -0 -0 -0 -0 -0 -0 -0 -0 -0 -0 -0 -0 -0 -0 -7 -10 -0 -0 -0 -0 -0 -0 -0 -0 -0 -0 -0 -0 -0
-0 -0 -0 -0 -0 -0 -0 -0 -0 -0 -0 -0 -0 -0 -0 -0 -0 -0 -0 -0 -0 -0 -0 -0 -0 -0 -9 -12 -8 -4 -0 -0 -0 -0 -0 -0 -0 -0 -0 -0 -0 -0 -0 -0 -0
-0 -0 -0 -0 -0 -0 -0 -0 -0 -0 -0 -0 -0 -0 -0 -0 -0 -0 -0 -0 -0 -0 -0 -0 -0 -8 -0 -2 -6 -0 -0 -0 -0 -0 -0 -0 -0 -0 -0 -0 -0 -0 -0 -0 -0
-0 -0 -0 -0 -0 -0 -0 -0 -0 -0 -0 -0 -0 -0 -0 -0 -0 -0 -0 -0 -0 -0 -0 -0 -0 -0 -0 -0 -0 -0 -0 -0 -0 -0 -0 -0 -0 -0 -0 -0 -0 -0 -0 -0 -0
-0 -0 -0 -0 -0 -0 -0 -0 -0 -0 -0 -0 -0 -0 -0 -0 -0 -0 -0 -0 -0 -0 -0 -0 -0 -0 -0 -0 -0 -0 -0 -0 -0 -0 -0 -0 -0 -0 -0 -0 -0 -0 -0 -0 -0
-0 -0 -0 -0 -0 -0 -0 -0 -0 -0 -0 -0 -0 -0 -0 -0 -0 -0 -0 -0 -0 -0 -0 -0 -0 -0 -0 -0 -0 -0 -0 -0 -0 -0 -0 -0 -0 -0 -0 -0 -0 -0 -0 -0 -0
-0 -0 -0 -0 -0 -0 -0 -0 -0 -0 -0 -0 -0 -0 -0 -0 -0 -0 -0 -0 -0 -0 -0 -0 -0 -0 -0 -0 -0 -0 -0 -0 -0 -0 -0 -0 -0 -0 -0 -0 -0 -0 -0 -0 -0
-0 -0 -0 -0 -0 -0 -0 -0 -0 -0 -0 -0 -0 -0 -0 -0 -0 -0 -0 -0 -0 -0 -0 -0 -0 -0 -0 -0 -0 -0 -0 -0 -0 -0 -0 -0 -0 -0 -0 -0 -0 -0 -0 -0 -0
-0 -0 -0 -0 -0 -0 -0 -0 -0 -0 -0 -0 -0 -0 -0 -0 -0 -0 -0 -0 -0 -0 -0 -0 -0 -0 -0 -0 -0 -0 -0 -0 -0 -0 -0 -0 -0 -0 -0 -0 -0 -0 -0 -0 -0
-0 -0 -0 -0 -0 -0 -0 -0 -0 -0 -0 -0 -0 -0 -0 -0 -0 -0 -0 -0 -0 -0 -0 -0 -0 -0 -0 -0 -0 -0 -0 -0 -0 -0 -0 -0 -0 -0 -0 -0 -0 -0 -0 -0 -0
-0 -0 -0 -0 -0 -0 -0 -0 -0 -0 -0 -0 -0 -0 -0 -0 -0 -0 -0 -0 -0 -0 -0 -0 -0 -0 -0 -0 -0 -0 -0 -0 -0 -0 -0 -0 -0 -0 -0 -0 -0 -0 -0 -0 -0
-0 -0 -0 -0 -0 -0 -0 -0 -0 -0 -0 -0 -0 -0 -0 -0 -0 -0 -0 -0 -0 -0 -0 -0 -0 -0 -0 -0 -0 -0 -0 -4 -4 -7 -0 -0 -0 -0 -0 -0 -0 -0 -0 -0 -0
-0 -0 -0 -0 -0 -0 -0 -0 -0 -0 -0 -0 -0 -0 -0 -0 -0 -0 -0 -0 -0 -0 -0 -0 -0 -0 -0 -0 -0 -0 -0 -0 -0 -0 -0 -0 -0 -0 -0 -0 -0 -0 -0 -0 -0
-0 -0 -0 -0 -0 -0 -0 -0 -0 -0 -0 -0 -0 -0 -0 -0 -0 -0 -0 -0 -0 -0 -0 -0 -0 -0 -0 -0 -0 -0 -0 -0 -0 -0 -0 -0 -0 -0 -0 -0 -0 -0 -0 -0 -0
-0 -0 -0 -0 -0 -0 -0 -0 -0 -0 -0 -0 -0 -0 -0 -0 -0 -0 -0 -0 -0 -0 -0 -0 -0 -0 -0 -0 -0 -0 -0 -0 -0 -0 -0 -0 -0 -0 -0 -0 -0 -0 -0 -0 -0
-0 -0 -0 -0 -0 -0 -0 -0 -0 -0 -0 -0 -0 -0 -0 -0 -0 -0 -0 -0 -0 -0 -0 -0 -0 -0 -0 -0 -0 -0 -0 -0 -0 -0 -0 -0 -0 -0 -0 -0 -0 -0 -0 -0 -0
-0 -0 -0 -0 -0 -0 -0 -0 -0 -0 -0 -0 -0 -0 -0 -0 -0 -0 -0 -0 -0 -0 -0 -0 -0 -0 -0 -0 -0 -0 -0 -0 -0 -0 -0 -0 -0 -0 -0 -0 -0 -0 -0 -0 -0
-0 -0 -0 -0 -0 -0 -0 -0 -0 -0 -0 -0 -0 -0 -0 -0 -0 -0 -0 -0 -0 -0 -0 -0 -0 -0 -0 -0 -0 -0 -0 -0 -0 -0 -0 -0 -0 -0 -0 -0 -0 -0 -0 -0 -0
-0 -0 -0 -0 -0 -0 -0 -0 -0 -0 -0 -0 -0 -0 -0 -0 -0 -0 -0 -0 -0 -0 -0 -0 -0 -0 -0 -0 -0 -0 -0 -0 -0 -0 -0 -0 -0 -0 -0 -0 -0 -0 -0 -0 -0
-0 -0 -0 -0 -0 -0 -0 -0 -0 -0 -0 -0 -0 -0 -0 -0 -0 -0 -0 -0 -0 -0 -0 -0 -0 -0 -0 -0 -0 -0 -0 -0 -0 -0 -0 -0 -0 -0 -0 -0 -0 -0 -0 -0 -0
-0 -0 -0 -0 -0 -0 -0 -0 -0 -0 -0 -0 -0 -0 -0 -0 -0 -0 -0 -0 -0 -0 -0 -0 -0 -0 -0 -0 -0 -0 -0 -0 -0 -0 -0 -0 -0 -0 -0 -0 -0 -0 -0 -0 -0
Wind_Speed
17 18 18 18 17 17 17 17 16 13 11 8 4 1 1 1 1 1 8 6 5 10 8 6 2 2 3 2 3 4 2 5 5 6 5 4 9 8 7 5 6 7 5 5 3
17 17 18 18 18 18 18 19 15 10 7 6 3 3 3 2 1 15 16 15 11 8 3 4 3 3 1 3 4 5 5 6 6 2 4 5 7 8 8 10 7 7 7 9 8
17 18 18 18 18 18 19 16 12 9 7 5 6 6 3 2 2 7 22 19 16 7 2 2 3 1 3 1 6 7 14 0 5 6 3 5 11 3 4 4 5 9 15 26 26
17 18 18 18 18 18 17 14 14 11 7 6 8 6 4 2 5 7 22 21 17 5 4 1 1 1 4 8 5 9 8 6 6 8 9 11 10 6 7 18 7 24 19 24 25
17 18 18 18 18 17 15 12 14 12 9 9 9 4 1 8 6 10 20 15 8 5 3 1 1 1 3 3 3 9 13 11 13 13 13 16 13 6 19 20 20 22 27 24 22
18 18 18 18 17 16 14 11 13 14 14 10 5 3 4 11 10 12 11 9 6 5 1 3 3 2 4 4 2 6 9 8 8 11 10 9 9 8 20 20 23 25 24 22 23
18 19 18 18 16 17 14 9 9 10 9 7 4 5 26 7 7 10 9 7 5 2 2 2 2 1 2 4 2 4 10 8 7 8 4 10 10 17 18 18 23 25 21 21 23
18 18 17 18 17 18 15 8 7 6 4 3 1 4 9 2 7 20 15 9 8 4 2 5 2 1 2 4 6 5 2 4 8 16 11 12 6 17 18 19 21 22 19 20 22
18 17 17 17 16 16 13 5 6 1 2 7 6 7 5 8 19 12 9 9 8 9 3 2 4 6 9 6 4 10 5 11 11 9 10 9 5 15 17 19 19 18 19 19 20
18 17 15 15 16 15 9 3 11 8 5 2 5 7 8 5 8 11 11 15 5 7 8 10 7 6 7 9 2 6 4 5 6 5 12 13 10 11 15 17 17 17 18 18 20
19 16 15 13 13 14 4 4 6 9 12 10 3 6 2 5 4 10 5 5 9 9 7 8 12 6 6 5 2 3 1 3 4 4 6 7 8 10 12 15 17 17 18 19 20
19 18 16 11 8 12 5 5 2 6 8 6 6 7 2 3 5 13 9 8 12 13 7 7 11 6 5 5 6 6 2 5 5 10 5 9 9 9 13 13 14 16 16 18 19
18 17 18 13 7 7 5 3 4 2 7 2 3 5 8 4 7 15 7 5 10 10 7 8 5 7 7 8 12 7 3 5 7 5 6 9 6 3 5 14 15 15 14 16 18
18 17 18 5 5 1 3 7 5 2 6 9 7 7 14 2 8 8 8 5 8 7 5 5 7 5 5 4 8 4 5 7 9 8 6 3 11 1 1 9 15 15 16 16 18
16 15 15 10 4 4 4 4 2 4 3 4 4 3 6 8 4 14 5 7 6 5 6 3 6 5 5 7 7 8 7 9 13 14 1 9 2 4 4 7 14 14 15 17 17
15 14 13 4 4 1 3 3 3 4 2 4 3 5 5 6 4 3 9 8 3 4 5 4 5 4 1 12 4 10 7 11 4 2 2 1 3 2 5 6 11 11 14 16 16
13 10 4 2 2 3 2 3 4 7 2 4 3 4 3 6 7 7 9 13 6 5 7 8 7 6 2 10 10 7 5 4 5 4 4 4 2 2 4 6 8 11 13 13 14
11 4 3 3 1 3 4 4 5 1 1 2 2 2 5 8 4 7 4 4 10 6 2 4 5 6 11 3 6 11 2 3 5 3 7 5 3 3 5 5 6 8 8 13 15
6 2 1 3 3 4 5 7 2 2 2 2 3 5 4 4 3 7 5 3 4 5 4 2 5 11 3 3 5 6 3 1 4 3 2 1 6 2 4 6 8 10 12 12 14
2 2 3 7 4 5 7 5 3 2 2 3 2 1 3 4 6 6 4 4 5 4 2 4 5 3 6 5 8 5 4 4 2 4 4 5 5 4 5 8 8 9 9 11 11
3 3 4 7 5 8 5 3 4 3 3 3 2 3 3 3 1 2 4 3 5 7 4 3 4 7 4 6 2 5 5 5 2 0 3 4 6 5 3 4 6 7 8 8 10
3 1 4 4 7 3 3 7 5 3 6 4 4 4 3 2 2 2 3 1 6 3 2 2 4 4 2 4 8 5 3 4 4 5 1 2 7 1 3 4 6 7 8 8 7
3 1 3 4 5 2 2 4 4 3 2 2 2 3 2 3 4 1 4 4 6 5 2 3 2 4 3 3 1 5 2 1 3 1 4 2 4 3 3 7 7 6 8 9 9
4 2 5 5 2 7 6 4 5 4 3 5 3 4 5 2 3 2 1 3 3 6 10 3 2 7 6 4 2 3 4 4 1 1 2 6 7 5 7 7 9 7 7 8 8
3 2 1 2 2 5 5 3 6 5 2 4 2 3 7 3 2 3 2 3 3 8 5 5 3 1 3 1 3 1 2 5 2 4 4 4 5 8 7 7 7 6 7 7 8
5 5 3 2 3 6 3 4 5 4 4 2 6 4 5 6 7 8 4 2 3 4 4 4 2 3 4 2 2 2 5 4 4 2 5 4 10 5 6 5 6 8 6 7 8
1 3 5 3 3 5 5 6 6 9 4 3 8 5 4 5 4 3 4 3 5 5 1 4 3 4 5 1 2 6 6 3 5 4 6 3 8 2 6 8 6 6 4 6 8
Wind_Direction
356 354 352 350 346 344 342 339 333 327 322 310 293 318 94 229 288 308 48 339 330 325 329 316 326 166 98 235 180 145 273 224 235 164 232 293 24 356 317 10 325 347 336 317 308
355 353 352 349 345 343 343 342 341 343 332 325 221 137 175 186 238 56 358 352 332 324 331 341 346 105 185 219 207 180 221 228 187 177 310 331 26 343 358 340 352 351 352 331 329
355 353 351 349 347 345 346 349 353 357 355 41 136 142 139 54 73 7 348 348 336 330 200 273 284 239 199 240 221 219 248 210 293 280 314 334 321 328 335 4 332 307 22 25 32
356 354 351 349 348 348 351 354 359 0 25 88 121 130 140 192 77 314 341 343 344 320 152 265 206 180 213 223 210 267 266 269 294 299 291 280 293 309 4 336 327 55 42 36 31
355 354 352 350 349 349 355 356 16 29 61 109 114 117 152 58 41 304 336 337 345 13 143 183 177 196 246 316 332 258 271 281 298 286 280 273 268 225 27 4 19 44 44 34 26
354 354 352 351 350 351 357 359 19 49 76 95 114 143 62 73 307 326 325 332 358 348 359 186 224 235 250 278 288 321 330 329 328 311 292 281 45 43 12 9 25 29 37 31 26
354 352 352 351 352 350 356 358 5 31 72 95 63 77 63 49 316 333 353 305 304 290 258 204 216 194 5 310 277 219 297 295 284 332 318 298 45 29 6 24 28 23 23 24 22
355 353 353 351 350 351 345 353 343 346 9 55 43 50 93 326 329 12 348 339 327 329 241 252 219 288 349 320 339 310 358 359 9 18 345 343 100 29 18 24 26 23 17 15 15
352 355 353 351 342 349 336 342 8 301 353 338 50 83 30 345 18 336 15 336 312 330 38 72 69 64 13 0 336 39 352 347 338 359 351 30 84 37 26 30 25 18 15 9 5
349 353 351 351 337 351 343 35 9 45 5 43 72 63 358 346 354 342 355 18 347 333 30 28 50 61 23 38 9 313 328 313 318 6 53 75 75 46 38 38 29 17 11 8 7
346 351 349 353 346 2 31 24 24 18 28 89 56 103 260 321 21 346 335 22 5 35 37 10 60 41 41 61 157 214 265 272 311 350 103 110 89 59 46 41 27 19 12 8 5
346 344 347 349 43 21 67 75 75 164 85 77 87 48 356 93 39 5 360 61 24 39 17 40 47 329 107 66 56 31 33 313 293 315 321 139 105 80 57 51 36 15 9 4 355
347 342 346 354 139 48 73 33 324 346 96 44 75 28 356 110 39 2 20 38 49 30 36 81 322 332 67 34 22 339 191 271 252 289 262 130 143 143 103 51 30 24 13 8 357
350 347 351 25 63 153 58 317 348 24 90 332 354 1 352 106 40 2 3 70 34 20 8 58 332 29 70 51 15 286 284 312 301 337 287 175 283 203 33 29 22 10 8 2 358
352 348 2 45 139 50 286 331 340 50 32 348 6 315 351 79 244 358 7 36 69 35 63 289 327 351 71 349 322 249 298 277 281 267 40 280 100 270 56 0 3 1 1 358 358
349 341 350 17 50 341 334 27 57 62 285 344 24 10 35 29 40 88 22 31 58 66 28 329 282 57 351 333 263 298 310 296 275 106 34 330 357 326 7 342 350 1 356 353 354
344 339 7 73 294 325 64 59 34 88 339 354 339 24 55 10 17 36 68 45 32 18 20 331 328 355 48 348 324 345 17 328 337 347 239 336 153 261 65 44 8 356 349 347 349
339 346 333 160 268 122 77 63 85 146 26 10 347 330 79 15 33 19 71 59 27 30 62 19 324 3 344 250 282 289 212 225 302 282 279 350 262 275 100 61 29 6 354 349 351
357 14 13 280 270 111 80 55 128 151 145 8 358 67 32 7 52 41 80 46 43 22 114 23 265 319 335 353 2 315 36 285 280 285 319 257 305 233 127 27 6 357 358 348 345
74 57 296 336 86 69 72 111 121 96 95 73 112 82 78 14 37 42 32 335 343 14 187 276 318 259 319 360 25 71 330 26 9 309 290 285 278 237 328 336 346 346 341 337 342
61 53 265 343 64 50 96 126 118 109 108 111 157 105 92 73 97 37 2 87 353 331 21 57 139 295 357 21 331 356 12 357 177 8 296 311 264 209 266 318 315 316 322 323 330
90 39 303 31 57 53 103 133 109 106 53 57 85 93 112 110 81 121 133 49 347 332 16 227 188 272 339 57 86 71 147 123 123 304 306 268 272 256 224 282 318 312 324 320 319
93 271 328 81 122 112 103 79 88 103 54 95 113 88 75 110 89 91 127 116 32 31 61 303 317 339 298 279 231 67 46 255 211 105 237 164 276 162 339 330 312 288 311 315 317
90 34 344 46 71 122 126 142 120 40 73 68 108 76 80 81 55 201 54 92 32 9 19 113 158 172 205 237 104 27 8 344 233 111 265 241 306 308 300 307 309 302 293 302 309
47 212 228 122 9 100 97 128 141 148 93 62 61 120 143 117 53 173 52 353 60 3 39 77 193 64 357 10 74 138 322 329 329 221 183 267 260 265 257 269 272 276 294 309 321
133 135 29 87 77 89 21 207 147 129 127 184 139 147 151 150 180 196 133 132 205 338 62 7 259 89 321 278 133 272 253 279 241 237 283 333 286 216 270 280 287 295 301 311 322
154 62 102 174 120 96 204 169 174 124 7 102 149 114 117 161 140 157 145 107 151 125 65 69 100 68 276 292 64 344 224 215 257 204 164 247 237 294 295 288 268 282 269 293 308